Погода в Тавричанке

Россия / Приморский край     43°19′29″N   131°51′36″E
темп.,
°C
ветер,
м/с
пор.,
м/с
влажн.,
%
обл.,
%
осадки,
мм/ч
давл.,
гПа
погр.,
м
19 сентября, вс
вс1901:00+16с7137029 0.0 1018435
04:00+16с61058100 0.0 1018427
07:00+14с5958100 0.0 1018310
10:00+17с454950 0.0 1018385
13:00+21вюв1247100 0.0 1016490
16:00+21ю5558100 0.0 1015384
19:00+17ю357690 0.0 1015145
22:00+16с2582100 0.0 1018201
20 сентября, пн
пн2001:00+13с71273100 0.0 1019419
04:00+12с71379100 0.0 1019481
07:00+12с71276100 0.0 1019440
10:00+14с7966100 0.0 1020471
13:00+17ссв3460100 0.0 1019485
16:00+18всв1262100 0.0 1017445
19:00+18ююв3788100 0.2 1017413
22:00+18ююв51089100 0.3 1015583
21 сентября, вт
вт2101:00+18ююв51088100 0.2 1014630
04:00+18юв61190100 0.8 1013721
07:00+18юв71387100 0.3 1011814
10:00+17юв81492100 2.8 1010880
13:00+18юв91592100 3.6 1007884
16:00+18юв91693100 9.3 1005868
19:00+19юв91595100 4.3 1004702
22:00+19юв51197100 7.6 1004508
22 сентября, ср
ср2201:00+19юв2498100 1.6 1003138
04:00+19юв239883 1.9 1002145
07:00+18св129777 0.1 100356
10:00+18ссв2395100 0.2 1004181
13:00+19с339493 0.9 1004298
16:00+20ссв349297 1.8 1004326
19:00+18с589491 1.7 1006337
22:00+17с139694 2.6 1008171
23 сентября, чт
чт2301:00+17с2395100 1.3 1008128
04:00+16с4797100 1.8 1009421
07:00+16с4797100 0.9 1011448
10:00+16с5897100 2.1 1012424
13:00+16с699298 0.5 1014529
16:00+15с61091100 0.8 1015563
19:00+14с61194100 0.9 1017545
22:00+14с61193100 1.9 1019554